カタログに戻る

OPS 4682 DEB

運用中PO
NORAD 51492·DEBRIS·🇺🇸 United States

打ち上げ Apr 3, 1965 から Vandenberg Space Force Base

Loading…

次のパス (今後24時間)

TLE

経年Source: Space-Track

元期: Sep 8, 2026, 03:37 UTC

1 51492U 65027GC  26251.15099904  .00000758  00000-0  24917-2 0  9999
2 51492  90.2648  19.6932 0030470  70.3262 107.9965 12.99888806774550

AllMySatでOPS 4682 DEBをリアルタイム追跡

Download on the App Store